Theta_e
318 322 323 325 328 330 334 340 341 342 343 343 345 346 344 343 343 340 342 339 338 337
317 318 320 324 327 329 333 338 339 333 334 338 342 343 334 325 324 338 342 341 340 337
316 318 318 321 323 326 330 328 322 324 325 328 328 328 330 327 324 322 333 340 337 333
313 316 318 317 320 325 324 318 319 322 324 325 323 326 321 322 324 322 322 334 334 332
310 313 314 315 317 321 319 318 320 323 325 325 324 324 320 321 322 320 320 332 333 334
307 308 311 314 315 318 319 317 317 323 323 324 324 323 322 323 321 321 324 330 333 334
304 306 307 308 311 316 319 317 315 317 322 322 323 321 319 320 319 321 325 333 336 332
303 304 305 306 308 310 316 319 322 322 319 317 317 320 319 319 321 325 327 332 333 331
301 301 302 303 304 306 307 314 321 319 321 316 318 314 309 316 317 323 329 326 321 318
300 300 301 303 302 303 304 307 316 319 319 319 317 309 306 309 322 328 321 318 315 316
297 298 300 301 300 302 302 304 311 315 317 317 317 309 307 309 325 320 319 317 315 318
297 298 299 299 300 299 300 303 308 315 316 315 315 308 305 316 320 318 317 319 318 317
297 296 296 297 298 299 301 303 306 311 313 313 314 309 303 315 318 316 317 316 316 311
297 297 297 297 299 300 300 303 304 308 314 318 317 314 301 303 318 316 315 315 314 311
Wind_Speed
7 5 7 10 12 10 12 12 16 14 16 20 22 19 19 15 16 18 17 19 12 9
7 7 5 8 9 10 13 12 15 10 8 12 18 23 6 4 7 22 16 15 16 12
7 7 6 5 9 13 13 7 6 6 5 6 7 8 10 7 10 16 22 16 14 9
7 7 6 5 6 10 8 4 7 8 8 7 6 7 7 6 5 9 17 22 6 8
8 7 6 6 7 4 5 6 8 6 8 10 11 10 10 7 1 5 21 11 3 7
15 13 13 11 8 4 6 7 7 10 9 11 12 12 11 9 10 11 10 15 13 9
15 14 14 14 13 10 5 5 7 7 10 7 8 12 12 13 15 20 18 18 12 11
16 15 15 15 11 11 10 6 6 10 10 10 11 12 15 16 10 12 17 10 9 7
17 17 18 17 15 12 12 11 7 5 5 11 12 21 19 24 21 14 17 9 7 8
17 17 17 15 14 16 11 10 11 7 12 10 26 20 12 12 11 16 13 14 12 8
17 19 17 15 16 13 8 8 10 8 9 10 3 15 25 19 14 11 13 13 12 10
16 17 17 18 12 9 11 10 8 13 13 3 7 16 25 21 13 11 10 10 10 9
16 15 16 16 15 12 11 8 7 10 11 13 10 23 17 21 10 11 9 6 8 12
15 15 14 14 13 13 10 8 7 8 7 7 6 3 6 8 10 10 8 7 4 4
Wind_Direction
269 258 286 289 284 274 270 266 255 251 242 236 237 233 226 218 210 212 207 198 192 184
278 279 277 294 301 298 275 264 261 286 291 278 259 253 190 217 328 281 223 196 190 187
257 271 285 303 305 306 297 276 260 249 251 263 241 242 260 258 255 287 292 233 176 170
262 270 274 284 298 307 300 238 231 231 227 208 185 118 113 126 173 7 274 268 160 150
297 278 275 282 285 289 259 251 267 240 227 205 188 190 172 202 164 17 309 228 256 175
330 333 331 307 291 293 250 232 262 271 238 218 196 180 167 160 163 123 263 245 218 194
306 311 318 314 319 300 264 235 228 244 268 247 211 185 175 153 167 158 225 230 203 198
296 293 294 297 304 314 302 261 260 220 232 238 216 213 196 167 207 223 239 200 186 188
293 290 287 283 280 288 304 295 247 276 201 262 249 215 228 174 199 219 224 164 146 156
290 289 287 287 295 281 284 300 291 219 233 232 239 256 196 229 195 192 159 152 150 155
290 283 284 285 279 276 286 280 291 271 230 235 179 252 256 208 198 142 154 152 143 130
290 292 283 275 269 282 290 297 290 278 266 226 282 316 260 171 147 143 141 152 138 135
286 285 284 290 294 272 265 251 268 279 247 225 194 262 249 132 139 148 144 143 133 139
277 272 270 274 280 261 251 284 292 299 275 176 172 255 283 330 145 147 134 139 133 165